User: anonymous   Login
Location: G�ppingen
(48.7089°N, 9.6563°E)
Time: 12:43:37
(UTC+01:00)
Language:

XW-2C - Orbit

View from above orbital plane
View from above orbital plane
View from above satellite
View from above satellite

Ground track
Ground track

The orbit data is extracted from the following two-line orbital elements,

1 40906U 15049H   19079.99790123  .00000829  00000-0  47117-4 0  9997
2 40906  97.4669  83.5742 0015863 144.2362 239.6835 15.15549108193419
Epoch (UTC): 20 March 2019 23:56:58
Eccentricity: 0.0015863
inclination: 97.4669°
perigee height: 508 km
apogee height: 530 km
right ascension of ascending node: 83.5742°
argument of perigee: 144.2362°
revolutions per day: 15.15549108
mean anomaly at epoch: 239.6835°
orbit number at epoch: 19341

The dashed part of the orbit path shows where the satellite is in the earth's shadow,  

DLR